Terminal Aerodrome Forecast
Issued by NWS Tallahassee, FL

Home | Current Version | Previous Version | Text Only | Print | Product List | Glossary On
Versions: 1 2 3 4 5 6 7 8 9 10 11 12 13
000
FTUS42 KTAE 022300
TAFTLH
TAF
KTLH 022329Z 0300/0324 09005KT P6SM VCTS SCT070CB BKN100
     FM030100 VRB03KT P6SM SCT250
     FM031400 08004KT P6SM FEW040
     FM031800 VRB15G25KT 1SM TSRA SCT030CB BKN050
     FM032100 16006KT P6SM VCTS SCT050CB BKN100=

USA.gov is the U.S. government's official web portal to all federal, state and local government web resources and services.